KC7VZS Weather Reports


time (UTC)temp
C
wind
direction
speed
KPH
gust
KPH
rain 1hr
cm
rain 24hr
cm
rain mn
cm
humidity
%
barometer
mb
20260508224532 25 304 4.8 16.1 0.00 0.00 0.00 22 862.6
20260508223013 25 267 4.8 17.7 0.00 0.00 0.00 21 862.8
20260508221515 25 336 4.8 14.5 0.00 0.00 0.00 21 863.0
20260508220011 25 172 3.2 14.5 0.00 0.00 0.00 22 863.2
20260508214516 25 307 4.8 12.9 0.00 0.00 0.00 22 863.4
20260508213010 24 234 3.2 14.5 0.00 0.00 0.00 23 863.5
20260508211515 24 66 4.8 11.3 0.00 0.00 0.00 22 863.7
20260508210008 24 256 3.2 14.5 0.00 0.00 0.00 22 863.8
20260508204510 24 105 8.0 14.5 0.00 0.00 0.00 21 864.0
20260508203010 24 279 4.8 14.5 0.00 0.00 0.00 22 864.1
20260508201508 24 171 6.4 19.3 0.00 0.00 0.00 22 864.1
20260508200019 23 196 8.0 19.3 0.00 0.00 0.00 22 864.3
20260508194510 25 216 4.8 19.3 0.00 0.00 0.00 22 864.1
20260508193002 24 351 4.8 19.3 0.00 0.00 0.00 24 864.4
20260508191500 23 207 9.7 16.1 0.00 0.00 0.00 22 864.5
20260508190100 23 188 11.3 20.9 0.00 0.00 0.00 24 864.5
20260508184558 23 200 6.4 22.5 0.00 0.00 0.00 27 864.5
20260508183124 23 33 4.8 20.9 0.00 0.00 0.00 26 864.6
20260508181610 23 345 8.0 20.9 0.00 0.00 0.00 26 864.8
20260508180049 23 203 4.8 11.3 0.00 0.00 0.00 27 865.0
20260508174547 22 267 4.8 16.1 0.00 0.00 0.00 30 865.3
20260508173043 22 298 4.8 11.3 0.00 0.00 0.00 30 865.2
20260508171547 22 192 6.4 14.5 0.00 0.00 0.00 31 865.3
20260508170038 22 263 1.6 8.0 0.00 0.00 0.00 29 865.2
20260508164533 21 296 3.2 8.0 0.00 0.00 0.00 31 865.1
20260508163030 21 223 1.6 8.0 0.00 0.00 0.00 33 865.1
20260508161533 21 221 1.6 6.4 0.00 0.00 0.00 35 865.1
20260508160023 20 183 0.0 4.8 0.00 0.00 0.00 36 865.0
20260508154517 20 18 0.0 4.8 0.00 0.00 0.00 39 865.0
20260508153013 20 45 0.0 4.8 0.00 0.00 0.00 42 865.0
20260508151509 18 176 0.0 0.0 0.00 0.00 0.00 47 865.0
20260508150012 17 348 0.0 0.0 0.00 0.00 0.00 49 864.9
20260508144605 16 10 0.0 1.6 0.00 0.00 0.00 53 864.9
20260508143055 15 112 0.0 1.6 0.00 0.00 0.00 56 864.9
20260508141601 13 112 0.0 1.6 0.00 0.00 0.00 63 864.8
20260508140056 12 112 0.0 1.6 0.00 0.00 0.00 67 864.7
20260508134544 10 112 0.0 3.2 0.00 0.00 0.00 71 864.7
20260508133042 8 112 0.0 0.0 0.00 0.00 0.00 76 864.5
20260508131535 7 112 0.0 0.0 0.00 0.00 0.00 77 864.5
20260508130031 7 112 0.0 0.0 0.00 0.00 0.00 74 864.4
20260508124528 7 112 0.0 0.0 0.00 0.00 0.00 72 864.1
20260508123028 8 112 0.0 0.0 0.00 0.00 0.00 69 863.9
20260508121526 8 112 0.0 3.2 0.00 0.00 0.00 70 863.9
20260508120024 7 76 0.0 3.2 0.00 0.00 0.00 74 863.9
20260508114531 7 109 0.0 0.0 0.00 0.00 0.00 72 863.8
20260508113023 8 109 0.0 0.0 0.00 0.00 0.00 68 863.8
20260508111516 8 109 0.0 0.0 0.00 0.00 0.00 67 863.6
20260508110014 8 109 0.0 0.0 0.00 0.00 0.00 68 863.5
20260508104515 8 109 0.0 0.0 0.00 0.00 0.00 69 863.4
20260508103013 8 109 0.0 0.0 0.00 0.00 0.00 69 863.4
20260508101512 8 109 0.0 0.0 0.00 0.00 0.00 70 863.3
20260508100010 8 109 0.0 0.0 0.00 0.00 0.00 69 863.3
20260508094506 8 109 0.0 0.0 0.00 0.00 0.00 66 863.2
20260508093007 9 109 0.0 1.6 0.00 0.00 0.00 65 863.1
20260508091502 10 114 0.0 0.0 0.00 0.00 0.00 63 863.1
20260508084559 11 116 0.0 3.2 0.00 0.00 0.00 60 863.0
20260508083058 11 76 0.0 3.2 0.00 0.00 0.00 60 863.1
20260508081605 10 76 0.0 3.2 0.00 0.00 0.00 61 863.0
20260508080058 10 76 0.0 3.2 0.00 0.00 0.00 62 862.9
20260508074556 10 76 0.0 0.0 0.00 0.00 0.00 60 862.9
20260508073055 11 76 0.0 0.0 0.00 0.00 0.00 58 862.9
20260508071546 12 76 0.0 3.2 0.00 0.00 0.00 55 862.9
20260508070048 12 97 1.6 8.0 0.00 0.00 0.00 54 863.0
20260508064601 12 44 0.0 6.4 0.00 0.00 0.00 55 862.9
20260508063042 12 44 1.6 4.8 0.00 0.00 0.00 55 862.8
20260508061545 12 157 0.0 0.0 0.00 0.00 0.00 53 862.7
20260508060040 12 40 0.0 0.0 0.00 0.00 0.00 52 862.6
20260508054600 13 40 0.0 0.0 0.00 0.00 0.00 49 862.4
20260508053036 14 40 0.0 0.0 0.00 0.00 0.00 45 862.3
20260508051537 14 40 0.0 0.0 0.00 0.00 0.00 46 862.3
20260508050039 15 40 0.0 0.0 0.00 0.00 0.00 45 862.3
20260508044535 15 40 0.0 0.0 0.00 0.00 0.00 45 862.3
20260508043043 15 40 0.0 0.0 0.00 0.00 0.00 46 862.3
20260508041536 15 40 0.0 0.0 0.00 0.00 0.00 45 862.2
20260508040041 16 40 0.0 0.0 0.00 0.00 0.00 40 862.1
20260508034535 17 40 0.0 0.0 0.00 0.00 0.00 39 862.0
20260508033034 17 40 0.0 3.2 0.00 0.00 0.00 40 862.0
20260508031533 19 155 0.0 6.4 0.00 0.00 0.00 34 861.7
20260508030033 20 333 0.0 0.0 0.00 0.00 0.00 33 861.5
20260508024531 21 333 0.0 1.6 0.00 0.00 0.00 29 861.4
20260508023031 21 333 0.0 1.6 0.00 0.00 0.00 27 861.4
20260508021530 22 333 0.0 0.0 0.00 0.00 0.00 26 861.2
20260508020029 22 333 0.0 1.6 0.00 0.00 0.00 26 861.3
20260508014529 22 333 0.0 3.2 0.00 0.00 0.00 25 861.2
20260508013030 22 333 0.0 3.2 0.00 0.00 0.00 24 861.4
20260508011536 22 332 3.2 9.7 0.00 0.00 0.00 25 861.4
20260508010030 22 298 0.0 4.8 0.00 0.00 0.00 25 861.4
20260508004535 22 292 0.0 8.0 0.00 0.00 0.00 25 861.5
20260508003022 23 299 3.2 8.0 0.00 0.00 0.00 25 861.6
20260508001527 23 293 3.2 4.8 0.00 0.00 0.00 23 861.8
20260508000020 23 249 0.0 8.0 0.00 0.00 0.00 24 861.9
20260507234524 23 298 6.4 11.3 0.00 0.00 0.00 24 861.9
20260507233024 23 281 3.2 9.7 0.00 0.00 0.00 23 862.1
20260507231514 23 201 1.6 9.7 0.00 0.00 0.00 25 862.3
20260507230013 23 223 1.6 11.3 0.00 0.00 0.00 26 862.5